Regional Weather Roundup
Issued by NWS Upton, NY

Current Version | Previous Version | Graphics & Text | Print | Product List | Glossary Off
Versions: 1 2 3 4 5 6 7 8 9 10 11 12 13 14 15 16 17 18 19 20 21 22 23 24 25 26 27 28 29 30 31 32 33 34 35 36 37 38 39 40 41 42 43 44 45 46 47 48 49 50

000
ASUS41 KOKX 270005
RWROKX

REGIONAL WEATHER ROUNDUP
NATIONAL WEATHER SERVICE NEW YORK NY
700 PM EST THU FEB 26 2015

NOTE: "FAIR" INDICATES FEW OR NO CLOUDS BELOW 12,000 FEET WITH NO
SIGNIFICANT WEATHER AND/OR OBSTRUCTIONS TO VISIBILITY.

NYZ071-072-176-178-NJZ106-104-270100-
NEW YORK CITY METRO AREA


CITY           SKY/WX    TMP DP  RH WIND       PRES   REMARKS
CENTRAL PARK   CLOUDY    26  11  52 VRB5      30.06R WCI  20
LAGUARDIA APRT CLOUDY    25  13  60 NW10      30.05R WCI  15
KENNEDY INTL   CLOUDY    27  13  55 N10       30.06R WCI  17
NEWARK/LIBERTY CLOUDY    26  14  60 NW9       30.06R WCI  17
BRNX BOT. GARD   N/A    N/A N/A N/A W6        30.06S
TETERBORO      CLOUDY    25  12  58 N3        30.05R
$$

NYZ177-179-078>081-270100-
LONG ISLAND NEW YORK

CITY           SKY/WX    TMP DP  RH WIND       PRES   REMARKS
FARMINGDALE    CLOUDY    26  15  63 N7        30.04R WCI  18
ISLIP          CLOUDY    26  14  60 N9        30.01R WCI  17
SHIRLEY        CLOUDY    25  15  66 N8        30.03R WCI  16
WESTHAMPTON    CLOUDY    24  14  65 N12       30.02R WCI  13
MONTAUK POINT    N/A     26  16  65 N8G18     30.01R WCI  18
$$

NYZ052-065-067-270100-
HUDSON VALLEY

CITY           SKY/WX    TMP DP  RH WIND       PRES   REMARKS
WHITE PLAINS   CLOUDY    22  11  62 NW9       30.02R WCI  12
NEWBURGH       CLOUDY    18  10  73 N8        30.05R WCI   7
MONTGOMERY     CLOUDY    19  11  70 NE6       30.03R WCI  11
POUGHKEEPSIE   CLOUDY    20   8  60 N5        30.06R WCI  13
ALBANY         CLOUDY    17  -4  39 N7        30.10R WCI   8
$$

NJZ001-105-106-008-010-013-015-019>022-104-270100-
NEW JERSEY

CITY           SKY/WX    TMP DP  RH WIND       PRES   REMARKS
NEWARK/LIBERTY CLOUDY    26  14  60 NW9       30.06R WCI  17
TETERBORO      CLOUDY    25  12  58 N3        30.05R
CALDWELL       CLOUDY    23  11  60 CALM      30.05R
MORRISTOWN     CLOUDY    25  14  63 NE5       30.05R WCI  19
SOMERVILLE     CLOUDY    26  13  57 CALM      30.04R
SUSSEX         CLOUDY    21  11  65 NE7       30.03R WCI  12
ANDOVER          N/A     21  12  68 CALM      30.02R
TRENTON        CLOUDY    26  14  60 N3        30.04R
MILLVILLE      CLEAR     25  15  66 CALM      30.05R
ATLANTIC CITY  CLEAR     25  15  66 N6        30.06  WCI  18
WRIGHTSTOWN    PTCLDY    25  17  71 N5        30.03R WCI  19
TOMS RIVER     CLOUDY    27  18  69 N5        30.06R WCI  21
BELMAR         CLOUDY    27  14  59 NW3       30.05R
$$

PAZ047>061-062-071-270100-
EASTERN PENNSYLVANIA

CITY           SKY/WX    TMP DP  RH WIND       PRES   REMARKS
PHILADELPHIA   MOCLDY    29  16  58 N7        30.07R WCI  22
ALLENTOWN      CLOUDY    26  14  60 CALM      30.03R
SCRANTON       CLOUDY    20  10  65 N8        30.01R WCI  10
$$

CTZ002-004>006-009-010-012-RIZ004-006-007-MAZ004-011-015-270100-
SOUTHERN NEW ENGLAND
 IN CT

CITY           SKY/WX    TMP DP  RH WIND       PRES   REMARKS
BRADLEY INTL   MOCLDY    23   8  52 NW3       30.02R
HARTFORD       CLOUDY    23  10  57 VRB5      30.04R WCI  17
DANBURY        CLOUDY    20   8  60 NW6       30.04R WCI  12
WTRBRY/OXFORD  NOT AVBL
BRIDGEPORT     CLOUDY    26  14  60 N6        30.04R WCI  19
MERIDEN        CLOUDY    23  11  60 NW5       30.04R WCI  17
NEW HAVEN      CLOUDY    24  13  62 N9        30.02R WCI  14
CHESTER        CLOUDY    23  14  68 NW9       30.00R WCI  13
GROTON         CLOUDY    23  14  68 N8        30.02R WCI  14
WILLIMANTIC    CLOUDY    22  12  65 NE3       30.01R

 IN RI

CITY           SKY/WX    TMP DP  RH WIND       PRES   REMARKS
PROVIDENCE     CLOUDY    22  12  65 N13       30.02R WCI  10
BLOCK ISLAND   CLOUDY    23  14  68 N10G16    29.97R WCI  12
WESTERLY       CLOUDY    23  14  68 N9        30.02R WCI  13

 IN MA

CITY           SKY/WX    TMP DP  RH WIND       PRES   REMARKS
BOSTON         CLOUDY    21   9  59 N5        30.04R WCI  15
WORCESTER      CLOUDY    20   8  60 CALM      29.95R
WESTFIELD      MOCLDY    22   4  46 N3        30.02R
PROVINCETOWN   PTCLDY    25  16  68 N16G24    29.99R WCI  12
NANTUCKET      CLOUDY    28  22  78 N21       29.94R WCI  15
$$

ANZ330-335-338-340-345-350-353-355-270100-
COASTAL MARINE OBSERVATIONS


STATION/POSITION TIME  SKY/WX   TEMP    WIND        PRES    VSBY  WAVE
                                AIR SEA DIR/SP/G                  HT/PER
                 (UTC)          (F)     (DEG/KT/KT) (MB)    (MI)  (FT/S)
NY HARB ENTRANCE 0000            28 38  340/ 12/ 16 1017.3          3/ 6
4S FIRE IS       NOT AVBL
20S FIRE ISLAND  2300               36              1015.9          5/ 7
23SW MTP         0000                                 N/A           5/ 5
HUDSON CANYON    NOT AVBL
EXECUTION ROCKS  NOT AVBL
WESTERN LI SOUND NOT AVBL
CENTRAL LI SOUND NOT AVBL
EASTERN LI SOUND NOT AVBL
ROBBINS REEF     0000            26     360/ 10/ 11 1016.4
$$


>>>>>>>>>>>>>>>>>>>>>>>>>>>> KEY <<<<<<<<<<<<<<<<<<<<<<<<<<<
>                                                          <
>     SKY/WX - SKY CONDITION/PRESENT WEATHER               <
>     TMP    - TEMPERATURE IN FAHRENHEIT                   <
>     DP     - DEWPOINT IN FAHRENHEIT                      <
>     RH     - RELATIVE HUMIDITY IN PERCENT                <
>     WIND   - DIRECTION AND SPEED IN MPH                  <
>     PRES   - MEAN SEA LEVEL PRESSURE IN INCHES OF HG     <
>     WCI    - WIND CHILL INDEX                            <
>     VSB    - VISIBILITY IN MILES                         <
>     HX     - HEAT INDEX                                  <
>     TC     - TEMPERATURE IN CELSIUS                      <
>     VRB    - VARIABLE WIND DIRECTION                     <
>                                                          <
>>>>>>>>>>>>>>>>>>>>>>>>>>>> KEY <<<<<<<<<<<<<<<<<<<<<<<<<<<




USA.gov is the U.S. government's official web portal to all federal, state and local government web resources and services.